Time,TemperatureF,DewpointF,PressureIn,WindDirection,WindDirectionDegrees,WindSpeedMPH,WindSpeedGustMPH,Humidity,HourlyPrecipIn,Conditions,Clouds,dailyrainin,SoftwareType,DateUTC
2013-07-14 00:10:00,65.5,65.0,30.18,East,90,0.0,-999.0,99,-99.99,,,0.00,weatherlink.com 1.10,2013-07-14 04:10:00,
2013-07-14 00:25:00,65.5,65.0,30.18,East,90,0.0,-999.0,99,-99.99,,,0.00,weatherlink.com 1.10,2013-07-14 04:25:00,
2013-07-14 00:40:00,65.5,65.0,30.18,East,90,0.0,-999.0,99,-99.99,,,0.00,weatherlink.com 1.10,2013-07-14 04:40:00,
2013-07-14 00:55:00,65.5,65.0,30.17,East,90,0.0,-999.0,99,-99.99,,,0.00,weatherlink.com 1.10,2013-07-14 04:55:00,
2013-07-14 01:10:00,65.6,65.0,30.16,East,90,0.0,-999.0,99,-99.99,,,0.00,weatherlink.com 1.10,2013-07-14 05:10:00,
2013-07-14 01:25:00,65.8,66.0,30.16,East,90,0.0,-999.0,99,-99.99,,,0.00,weatherlink.com 1.10,2013-07-14 05:25:00,
2013-07-14 01:40:00,66.0,66.0,30.16,East,92,1.0,-999.0,99,-99.99,,,0.00,weatherlink.com 1.10,2013-07-14 05:40:00,
2013-07-14 01:55:00,66.1,66.0,30.16,SE,130,0.0,-999.0,99,-99.99,,,0.00,weatherlink.com 1.10,2013-07-14 05:55:00,
2013-07-14 02:10:00,66.1,66.0,30.16,South,172,0.0,-999.0,99,-99.99,,,0.00,weatherlink.com 1.10,2013-07-14 06:10:00,
2013-07-14 02:25:00,66.1,66.0,30.16,ESE,123,0.0,-999.0,99,-99.99,,,0.00,weatherlink.com 1.10,2013-07-14 06:25:00,
2013-07-14 02:40:00,66.0,66.0,30.16,SW,231,4.0,-999.0,99,-99.99,,,0.00,weatherlink.com 1.10,2013-07-14 06:40:00,
2013-07-14 02:55:00,66.0,66.0,30.16,WSW,258,0.0,-999.0,99,-99.99,,,0.00,weatherlink.com 1.10,2013-07-14 06:55:00,
2013-07-14 03:10:00,66.0,66.0,30.16,South,173,2.0,-999.0,99,-99.99,,,0.00,weatherlink.com 1.10,2013-07-14 07:10:00,
2013-07-14 03:25:00,65.8,66.0,30.16,South,173,0.0,-999.0,99,-99.99,,,0.00,weatherlink.com 1.10,2013-07-14 07:25:00,
2013-07-14 03:40:00,65.6,65.0,30.16,North,5,0.0,-999.0,99,-99.99,,,0.00,weatherlink.com 1.10,2013-07-14 07:40:00,
2013-07-14 03:55:00,65.5,65.0,30.17,North,360,0.0,-999.0,99,-99.99,,,0.00,weatherlink.com 1.10,2013-07-14 07:55:00,
2013-07-14 04:10:00,65.5,66.0,30.17,North,360,0.0,-999.0,100,-99.99,,,0.00,weatherlink.com 1.10,2013-07-14 08:10:00,
2013-07-14 04:25:00,65.3,65.0,30.19,North,351,0.0,-999.0,100,-99.99,,,0.00,weatherlink.com 1.10,2013-07-14 08:25:00,
2013-07-14 04:40:00,65.2,65.0,30.19,West,281,2.0,-999.0,100,-99.99,,,0.00,weatherlink.com 1.10,2013-07-14 08:40:00,
2013-07-14 04:55:00,65.2,65.0,30.19,West,259,0.0,-999.0,100,-99.99,,,0.00,weatherlink.com 1.10,2013-07-14 08:55:00,
2013-07-14 05:10:00,65.0,65.0,30.19,SE,140,0.0,-999.0,100,-99.99,,,0.00,weatherlink.com 1.10,2013-07-14 09:10:00,
2013-07-14 05:25:00,65.0,65.0,30.20,East,88,0.0,-999.0,100,-99.99,,,0.00,weatherlink.com 1.10,2013-07-14 09:25:00,
2013-07-14 05:41:00,65.0,65.0,30.20,SSE,153,0.0,-999.0,100,-99.99,,,0.00,weatherlink.com 1.10,2013-07-14 09:41:00,
2013-07-14 05:56:00,65.0,65.0,30.21,NNW,340,0.0,-999.0,100,-99.99,,,0.00,weatherlink.com 1.10,2013-07-14 09:56:00,
2013-07-14 06:11:00,64.8,65.0,30.21,ESE,123,0.0,-999.0,100,-99.99,,,0.00,weatherlink.com 1.10,2013-07-14 10:11:00,
2013-07-14 06:26:00,64.8,65.0,30.21,SE,124,0.0,-999.0,100,-99.99,,,0.00,weatherlink.com 1.10,2013-07-14 10:26:00,
2013-07-14 06:41:00,65.0,65.0,30.23,ESE,123,0.0,-999.0,100,-99.99,,,0.00,weatherlink.com 1.10,2013-07-14 10:41:00,
2013-07-14 06:56:00,64.8,65.0,30.23,ESE,123,0.0,-999.0,100,-99.99,,,0.00,weatherlink.com 1.10,2013-07-14 10:56:00,
2013-07-14 07:11:00,64.8,65.0,30.23,South,191,0.0,-999.0,100,-99.99,,,0.00,weatherlink.com 1.10,2013-07-14 11:11:00,
2013-07-14 07:26:00,64.8,65.0,30.23,NNE,32,0.0,-999.0,100,-99.99,,,0.00,weatherlink.com 1.10,2013-07-14 11:26:00,
2013-07-14 07:41:00,64.7,65.0,30.24,ENE,63,0.0,-999.0,100,-99.99,,,0.00,weatherlink.com 1.10,2013-07-14 11:41:00,
2013-07-14 07:56:00,64.8,65.0,30.25,NW,318,0.0,-999.0,100,-99.99,,,0.00,weatherlink.com 1.10,2013-07-14 11:56:00,
2013-07-14 08:11:00,64.7,65.0,30.25,SSE,164,0.0,-999.0,100,-99.99,,,0.00,weatherlink.com 1.10,2013-07-14 12:11:00,
2013-07-14 08:26:00,64.7,65.0,30.25,South,183,0.0,-999.0,100,-99.99,,,0.00,weatherlink.com 1.10,2013-07-14 12:26:00,
2013-07-14 08:41:00,64.7,65.0,30.26,WSW,248,1.0,-999.0,100,-99.99,,,0.00,weatherlink.com 1.10,2013-07-14 12:41:00,
2013-07-14 08:56:00,64.8,65.0,30.27,East,90,0.0,-999.0,100,-99.99,,,0.00,weatherlink.com 1.10,2013-07-14 12:56:00,
2013-07-14 09:11:00,65.0,65.0,30.27,North,355,1.0,-999.0,100,-99.99,,,0.00,weatherlink.com 1.10,2013-07-14 13:11:00,
2013-07-14 09:26:00,64.8,65.0,30.28,ENE,64,0.0,-999.0,100,-99.99,,,0.00,weatherlink.com 1.10,2013-07-14 13:26:00,
2013-07-14 09:41:00,64.7,65.0,30.29,West,269,0.0,-999.0,100,-99.99,,,0.00,weatherlink.com 1.10,2013-07-14 13:41:00,
2013-07-14 09:56:00,64.5,65.0,30.29,SE,130,0.0,-999.0,100,-99.99,,,0.00,weatherlink.com 1.10,2013-07-14 13:56:00,
2013-07-14 10:11:00,64.3,64.0,30.31,NE,36,0.0,-999.0,100,-99.99,,,0.00,weatherlink.com 1.10,2013-07-14 14:11:00,
2013-07-14 10:26:00,64.3,64.0,30.31,NW,314,2.0,-999.0,100,-99.99,,,0.00,weatherlink.com 1.10,2013-07-14 14:26:00,
2013-07-14 10:41:00,64.2,64.0,30.32,East,80,0.0,-999.0,100,-99.99,,,0.00,weatherlink.com 1.10,2013-07-14 14:41:00,
2013-07-14 10:56:00,64.2,64.0,30.32,NE,41,0.0,-999.0,100,-99.99,,,0.00,weatherlink.com 1.10,2013-07-14 14:56:00,
2013-07-14 11:11:00,64.2,64.0,30.33,SW,227,1.0,-999.0,100,-99.99,,,0.00,weatherlink.com 1.10,2013-07-14 15:11:00,
2013-07-14 11:26:00,64.0,64.0,30.33,East,86,0.0,-999.0,100,-99.99,,,0.00,weatherlink.com 1.10,2013-07-14 15:26:00,
2013-07-14 11:41:00,64.2,64.0,30.33,East,86,0.0,-999.0,100,-99.99,,,0.00,weatherlink.com 1.10,2013-07-14 15:41:00,
2013-07-14 11:56:00,64.7,65.0,30.34,East,86,0.0,-999.0,100,-99.99,,,0.00,weatherlink.com 1.10,2013-07-14 15:56:00,
2013-07-14 12:11:00,65.3,65.0,30.33,East,86,0.0,-999.0,100,-99.99,,,0.00,weatherlink.com 1.10,2013-07-14 16:11:00,
2013-07-14 12:26:00,65.6,66.0,30.33,East,86,0.0,-999.0,100,-99.99,,,0.00,weatherlink.com 1.10,2013-07-14 16:26:00,
2013-07-14 12:41:00,66.3,66.0,30.33,South,189,1.0,-999.0,100,-99.99,,,0.00,weatherlink.com 1.10,2013-07-14 16:41:00,
2013-07-14 12:56:00,66.6,67.0,30.33,SSE,153,0.0,-999.0,100,-99.99,,,0.00,weatherlink.com 1.10,2013-07-14 16:56:00,
2013-07-14 13:11:00,66.9,67.0,30.33,SE,130,0.0,-999.0,100,-99.99,,,0.00,weatherlink.com 1.10,2013-07-14 17:11:00,
2013-07-14 13:26:00,66.6,67.0,30.33,SE,129,0.0,-999.0,100,-99.99,,,0.00,weatherlink.com 1.10,2013-07-14 17:26:00,
2013-07-14 13:41:00,66.3,66.0,30.33,SE,129,0.0,-999.0,100,-99.99,,,0.00,weatherlink.com 1.10,2013-07-14 17:41:00,
2013-07-14 13:56:00,66.6,67.0,30.33,SE,129,0.0,-999.0,100,-99.99,,,0.00,weatherlink.com 1.10,2013-07-14 17:56:00,
2013-07-14 14:11:00,66.9,67.0,30.33,SE,129,0.0,-999.0,100,-99.99,,,0.00,weatherlink.com 1.10,2013-07-14 18:11:00,
2013-07-14 14:26:00,67.3,67.0,30.33,South,188,0.0,-999.0,100,-99.99,,,0.00,weatherlink.com 1.10,2013-07-14 18:26:00,
2013-07-14 14:41:00,67.4,67.0,30.33,South,188,0.0,-999.0,100,-99.99,,,0.00,weatherlink.com 1.10,2013-07-14 18:41:00,
2013-07-14 14:56:00,67.9,68.0,30.32,South,186,0.0,-999.0,100,-99.99,,,0.00,weatherlink.com 1.10,2013-07-14 18:56:00,
2013-07-14 15:11:00,67.8,68.0,30.31,South,179,0.0,-999.0,99,-99.99,,,0.00,weatherlink.com 1.10,2013-07-14 19:11:00,
2013-07-14 15:26:00,68.4,67.0,30.30,WNW,297,0.0,-999.0,95,-99.99,,,0.00,weatherlink.com 1.10,2013-07-14 19:26:00,
2013-07-14 15:41:00,69.4,67.0,30.30,SSW,194,2.0,-999.0,92,-99.99,,,0.00,weatherlink.com 1.10,2013-07-14 19:41:00,
2013-07-14 15:56:00,69.8,67.0,30.30,WNW,289,0.0,-999.0,89,-99.99,,,0.00,weatherlink.com 1.10,2013-07-14 19:56:00,
2013-07-14 16:11:00,70.6,67.0,30.29,ENE,66,0.0,-999.0,89,-99.99,,,0.00,weatherlink.com 1.10,2013-07-14 20:11:00,
2013-07-14 16:26:00,70.4,66.0,30.28,East,94,0.0,-999.0,85,-99.99,,,0.00,weatherlink.com 1.10,2013-07-14 20:26:00,
2013-07-14 16:41:00,69.1,66.0,30.30,NNW,330,0.0,-999.0,90,-99.99,,,0.00,weatherlink.com 1.10,2013-07-14 20:41:00,
2013-07-14 16:56:00,68.4,66.0,30.30,NNW,330,0.0,-999.0,92,-99.99,,,0.00,weatherlink.com 1.10,2013-07-14 20:56:00,
2013-07-14 17:11:00,68.9,67.0,30.30,NNW,330,0.0,-999.0,92,-99.99,,,0.00,weatherlink.com 1.10,2013-07-14 21:11:00,
2013-07-14 17:26:00,69.6,66.0,30.30,NNW,330,0.0,-999.0,88,-99.99,,,0.00,weatherlink.com 1.10,2013-07-14 21:26:00,
2013-07-14 17:41:00,70.8,67.0,30.29,ESE,103,0.0,-999.0,87,-99.99,,,0.00,weatherlink.com 1.10,2013-07-14 21:41:00,
2013-07-14 17:56:00,70.9,66.0,30.29,ESE,103,0.0,-999.0,85,-99.99,,,0.00,weatherlink.com 1.10,2013-07-14 21:56:00,
2013-07-14 18:11:00,71.3,67.0,30.28,ESE,103,0.0,-999.0,86,-99.99,,,0.00,weatherlink.com 1.10,2013-07-14 22:11:00,
2013-07-14 18:26:00,70.8,67.0,30.29,NNW,344,0.0,-999.0,87,-99.99,,,0.00,weatherlink.com 1.10,2013-07-14 22:26:00,
2013-07-14 18:41:00,70.8,68.0,30.29,NNW,344,0.0,-999.0,90,-99.99,,,0.00,weatherlink.com 1.10,2013-07-14 22:41:00,
2013-07-14 18:56:00,71.5,68.0,30.29,NNW,344,0.0,-999.0,89,-99.99,,,0.00,weatherlink.com 1.10,2013-07-14 22:56:00,
2013-07-14 19:11:00,71.3,68.0,30.29,NNW,345,0.0,-999.0,89,-99.99,,,0.00,weatherlink.com 1.10,2013-07-14 23:11:00,
2013-07-14 19:26:00,70.4,67.0,30.29,NNW,345,0.0,-999.0,89,-99.99,,,0.00,weatherlink.com 1.10,2013-07-14 23:26:00,
2013-07-14 19:41:00,69.9,67.0,30.30,SE,138,0.0,-999.0,90,-99.99,,,0.00,weatherlink.com 1.10,2013-07-14 23:41:00,
2013-07-14 19:56:00,69.6,67.0,30.30,SE,138,0.0,-999.0,91,-99.99,,,0.00,weatherlink.com 1.10,2013-07-14 23:56:00,
2013-07-14 20:11:00,69.3,67.0,30.30,SE,138,0.0,-999.0,92,-99.99,,,0.00,weatherlink.com 1.10,2013-07-15 00:11:00,
2013-07-14 20:26:00,68.8,66.0,30.30,SE,138,0.0,-999.0,92,-99.99,,,0.00,weatherlink.com 1.10,2013-07-15 00:26:00,
2013-07-14 20:41:00,68.6,67.0,30.30,SE,138,0.0,-999.0,93,-99.99,,,0.00,weatherlink.com 1.10,2013-07-15 00:41:00,
2013-07-14 20:56:00,67.6,66.0,30.31,ESE,114,0.0,-999.0,94,-99.99,,,0.00,weatherlink.com 1.10,2013-07-15 00:56:00,
2013-07-14 21:11:00,67.1,66.0,30.32,ESE,108,0.0,-999.0,96,-99.99,,,0.00,weatherlink.com 1.10,2013-07-15 01:11:00,
2013-07-14 21:26:00,66.6,66.0,30.33,ESE,107,0.0,-999.0,96,-99.99,,,0.00,weatherlink.com 1.10,2013-07-15 01:26:00,
2013-07-14 21:41:00,66.1,65.0,30.33,NW,317,0.0,-999.0,97,-99.99,,,0.00,weatherlink.com 1.10,2013-07-15 01:41:00,
2013-07-14 21:56:00,65.8,65.0,30.33,NW,317,0.0,-999.0,97,-99.99,,,0.00,weatherlink.com 1.10,2013-07-15 01:56:00,
2013-07-14 22:11:00,65.8,65.0,30.35,NW,317,0.0,-999.0,97,-99.99,,,0.00,weatherlink.com 1.10,2013-07-15 02:11:00,
2013-07-14 22:26:00,65.8,65.0,30.35,NW,317,0.0,-999.0,98,-99.99,,,0.00,weatherlink.com 1.10,2013-07-15 02:26:00,
2013-07-14 22:41:00,65.8,65.0,30.35,NW,317,0.0,-999.0,98,-99.99,,,0.00,weatherlink.com 1.10,2013-07-15 02:41:00,
2013-07-14 22:56:00,66.0,66.0,30.35,NW,317,0.0,-999.0,98,-99.99,,,0.00,weatherlink.com 1.10,2013-07-15 02:56:00,
2013-07-14 23:11:00,66.0,66.0,30.36,NW,317,0.0,-999.0,98,-99.99,,,0.00,weatherlink.com 1.10,2013-07-15 03:11:00,
2013-07-14 23:26:00,66.0,66.0,30.36,NW,317,0.0,-999.0,98,-99.99,,,0.00,weatherlink.com 1.10,2013-07-15 03:26:00,
2013-07-14 23:41:00,65.8,65.0,30.36,NE,43,0.0,-999.0,98,-99.99,,,0.00,weatherlink.com 1.10,2013-07-15 03:41:00,
2013-07-14 23:56:00,65.8,66.0,30.36,NE,43,0.0,-999.0,99,-99.99,,,0.00,weatherlink.com 1.10,2013-07-15 03:56:00,